sat.trackr.live / text

‹ back to catalog

STARLINK-6141

NORAD 57112 · 2023-090M

PAYLOAD ACTIVE UNKNOWN

§ Identity

Operator
Country
US
Launch date
2023-06-23
Launch site
AFETR
Launch vehicle
Mass (kg)
RCS (m²)

Purposes: comms

External: N2YO · Heavens-Above · Gunter

§ Orbital elements

Epoch: 2026-05-25T04:58:40.962720Z

Period
94.27 min
Inclination
43.0017°
Eccentricity
0.0001156
Mean motion
15.27565531 rev/d
Perigee alt
482.3 km
Apogee alt
483.9 km
Semi-major
6,861.2 km
B*
8.1127e-5
RAAN
209.5169°
Arg perigee
277.2922°
Mean anomaly
82.7798°
Rev number
16,203

§ Raw data

STARLINK-61411 57112U 23090M   26145.20741855  .00001970  00000+0  81127-4 0  99992 57112  43.0017 209.5169 0001156 277.2922  82.7798 15.27565531162032

JSON: /api/v1/satellites/57112 · /tle

For live sub-satellite position, see the globe view (requires WebGL).

§ Visibility from observer

Set your observer location to see the next 7 days of passes ≥ 10°. The values pass through the URL so the page stays shareable.

No JS? Fill the form by hand. The geolocation button needs JavaScript.